Location: Newark
(38.0892°N, 27.7378°E)
Time: 11:03:24
(UTC+00:00)

N. Korean satellite - Pass Details

Date: 12 December 2019
Orbit: 454 x 508 km, 97.2° (Epoch: 17 January)

Event Time Altitude Azimuth Distance (km) Brightness Sun altitude
Rises 04:10:29 0° 7° (N) 2,530 10.1 -12.5°
Reaches altitude 10° 04:12:35 10° 4° (N) 1,638 9.1 -12.1°
Maximum altitude 04:16:02 59° 284° (WNW) 541 6.4 -11.5°
Drops below altitude 10° 04:19:25 10° 204° (SSW) 1,601 9.2 -10.8°
Sets 04:21:27 0° 201° (SSW) 2,464 10.2 -10.5°
